When you browse on this site, cookies collect data to enhance your experience and personalize the content and advertising you see.
Visit our Privacy Policy to learn more. By continuing to use the site, you agree to this use of cookies and data.
  • In Austria
  • List of Countries
  • For 7 days
  • Water Temperature
  • Satellite Maps
  • Weather Map
  • News
  • Weather Widgets
  • user-avatar
    Login

    Hourly Weather Bershad

    Today, 24 July, Wednesday

    Time Temperature Precipitation Wind Pressure Humidity
    00:00 +16°C° 0 mm 3 mps 742 mmHg 85%
    01:00 +14°C° 0 mm 3 mps 742 mmHg 87%
    02:00 +14°C° 0 mm 3 mps 741 mmHg 88%
    03:00 +14°C° 0 mm 3 mps 741 mmHg 88%
    04:00 +14°C° 0 mm 3 mps 741 mmHg 88%
    05:00 +14°C° 0 mm 3 mps 741 mmHg 88%
    06:00 +17°C° 0 mm 4 mps 742 mmHg 82%
    07:00 +19°C° 0 mm 4 mps 742 mmHg 77%
    08:00 +20°C° 0 mm 5 mps 742 mmHg 71%
    09:00 +22°C° 0 mm 5 mps 742 mmHg 66%
    10:00 +23°C° 0 mm 5 mps 742 mmHg 62%
    11:00 +25°C° 0 mm 5 mps 742 mmHg 57%
    12:00 +26°C° 0 mm 5 mps 741 mmHg 55%
    13:00 +26°C° 0 mm 5 mps 741 mmHg 52%
    14:00 +27°C° 0 mm 5 mps 741 mmHg 50%
    15:00 +27°C° 0.1 mm 5 mps 741 mmHg 52%
    16:00 +26°C° 0.1 mm 6 mps 741 mmHg 53%
    17:00 +26°C° 0.1 mm 6 mps 741 mmHg 54%
    18:00 +23°C° 0 mm 5 mps 741 mmHg 62%
    19:00 +21°C° 0 mm 4 mps 741 mmHg 70%
    20:00 +20°C° 0 mm 3 mps 741 mmHg 78%
    21:00 +19°C° 0 mm 3 mps 741 mmHg 81%
    22:00 +18°C° 0 mm 3 mps 742 mmHg 84%
    23:00 +17°C° 0 mm 3 mps 742 mmHg 87%

    Tomorrow, 25 July, Thursday

    Time Temperature Precipitation Wind Pressure Humidity
    00:00 +17°C° 0 mm 3 mps 742 mmHg 88%
    01:00 +16°C° 0 mm 3 mps 742 mmHg 90%
    02:00 +16°C° 0 mm 3 mps 742 mmHg 91%
    03:00 +16°C° 0 mm 3 mps 742 mmHg 91%
    04:00 +16°C° 0 mm 3 mps 742 mmHg 91%
    05:00 +14°C° 0 mm 3 mps 742 mmHg 91%
    06:00 +17°C° 0 mm 3 mps 742 mmHg 83%
    07:00 +19°C° 0 mm 4 mps 743 mmHg 74%
    08:00 +21°C° 0 mm 4 mps 743 mmHg 65%
    09:00 +22°C° 0 mm 4 mps 743 mmHg 60%
    10:00 +25°C° 0 mm 5 mps 743 mmHg 55%
    11:00 +26°C° 0 mm 5 mps 743 mmHg 50%
    12:00 +26°C° 0 mm 5 mps 743 mmHg 49%
    13:00 +27°C° 0 mm 5 mps 743 mmHg 48%
    14:00 +27°C° 0 mm 5 mps 742 mmHg 47%
    15:00 +27°C° 0 mm 5 mps 742 mmHg 48%
    16:00 +27°C° 0 mm 5 mps 742 mmHg 49%
    17:00 +26°C° 0 mm 5 mps 742 mmHg 50%
    18:00 +25°C° 0 mm 4 mps 742 mmHg 56%
    19:00 +22°C° 0 mm 3 mps 742 mmHg 63%
    20:00 +21°C° 0 mm 1 mps 742 mmHg 69%
    21:00 +20°C° 0 mm 1 mps 742 mmHg 71%
    22:00 +20°C° 0 mm 1 mps 742 mmHg 72%
    23:00 +19°C° 0 mm 1 mps 742 mmHg 73%

    Day after tomorrow, 26 July, Friday

    Time Temperature Precipitation Wind Pressure Humidity
    00:00 +19°C° 0 mm 1 mps 742 mmHg 73%
    01:00 +19°C° 0 mm 1 mps 741 mmHg 72%
    02:00 +18°C° 0 mm 2 mps 741 mmHg 71%
    03:00 +18°C° 0.2 mm 2 mps 741 mmHg 75%
    04:00 +17°C° 0.2 mm 2 mps 741 mmHg 78%
    05:00 +18°C° 0.2 mm 1 mps 741 mmHg 81%
    06:00 +19°C° 0.3 mm 2 mps 740 mmHg 77%
    07:00 +20°C° 0.3 mm 2 mps 740 mmHg 73%
    08:00 +23°C° 0.3 mm 2 mps 740 mmHg 70%
    09:00 +24°C° 0.1 mm 2 mps 740 mmHg 64%
    10:00 +25°C° 0.1 mm 2 mps 740 mmHg 57%
    11:00 +27°C° 0.1 mm 2 mps 740 mmHg 51%
    12:00 +27°C° 0.1 mm 2 mps 740 mmHg 49%
    13:00 +28°C° 0.1 mm 3 mps 739 mmHg 47%
    14:00 +28°C° 0.1 mm 3 mps 739 mmHg 45%
    15:00 +28°C° 0 mm 3 mps 739 mmHg 46%
    16:00 +28°C° 0 mm 3 mps 739 mmHg 48%
    17:00 +28°C° 0 mm 3 mps 738 mmHg 49%
    18:00 +26°C° 0 mm 3 mps 738 mmHg 56%
    19:00 +24°C° 0 mm 2 mps 738 mmHg 63%
    20:00 +21°C° 0 mm 2 mps 738 mmHg 71%
    21:00 +20°C° 0 mm 2 mps 738 mmHg 75%
    22:00 +19°C° 0 mm 2 mps 738 mmHg 79%
    23:00 +19°C° 0 mm 1 mps 738 mmHg 83%

    27 July, Saturday

    Time Temperature Precipitation Wind Pressure Humidity
    00:00 +19°C° 0 mm 1 mps 738 mmHg 85%
    01:00 +18°C° 0 mm 1 mps 737 mmHg 86%
    02:00 +18°C° 0 mm 1 mps 737 mmHg 88%
    03:00 +18°C° 0 mm 1 mps 737 mmHg 88%
    04:00 +18°C° 0 mm 1 mps 737 mmHg 88%
    05:00 +17°C° 0 mm 2 mps 737 mmHg 89%
    06:00 +18°C° 0 mm 2 mps 737 mmHg 84%
    07:00 +19°C° 0 mm 2 mps 737 mmHg 80%
    08:00 +21°C° 0 mm 2 mps 737 mmHg 75%
    09:00 +21°C° 0.1 mm 2 mps 737 mmHg 71%
    10:00 +23°C° 0.1 mm 2 mps 737 mmHg 67%
    11:00 +24°C° 0.1 mm 1 mps 737 mmHg 63%
    12:00 +25°C° 0.1 mm 1 mps 736 mmHg 57%
    13:00 +26°C° 0.1 mm 2 mps 736 mmHg 52%
    14:00 +28°C° 0.1 mm 2 mps 736 mmHg 46%
    15:00 +27°C° 0 mm 2 mps 736 mmHg 47%
    16:00 +27°C° 0 mm 2 mps 736 mmHg 48%
    17:00 +27°C° 0 mm 2 mps 735 mmHg 49%
    18:00 +25°C° 0 mm 2 mps 735 mmHg 57%
    19:00 +23°C° 0 mm 2 mps 735 mmHg 64%
    20:00 +20°C° 0 mm 2 mps 735 mmHg 71%
    21:00 +20°C° 0 mm 2 mps 735 mmHg 74%
    22:00 +20°C° 0 mm 1 mps 735 mmHg 76%
    23:00 +19°C° 0 mm 1 mps 735 mmHg 78%

    28 July, Sunday

    Time Temperature Precipitation Wind Pressure Humidity
    00:00 +19°C° 0 mm 1 mps 735 mmHg 80%
    01:00 +18°C° 0 mm 1 mps 735 mmHg 82%
    02:00 +18°C° 0 mm 1 mps 735 mmHg 84%
    03:00 +18°C° 0 mm 1 mps 735 mmHg 86%
    04:00 +16°C° 0 mm 1 mps 735 mmHg 87%
    05:00 +16°C° 0 mm 2 mps 735 mmHg 89%
    06:00 +18°C° 0 mm 2 mps 735 mmHg 82%
    07:00 +20°C° 0 mm 2 mps 736 mmHg 75%
    08:00 +23°C° 0 mm 2 mps 736 mmHg 68%
    09:00 +24°C° 0 mm 2 mps 736 mmHg 62%
    10:00 +26°C° 0 mm 2 mps 736 mmHg 56%
    11:00 +27°C° 0 mm 2 mps 736 mmHg 50%
    12:00 +28°C° 0 mm 2 mps 736 mmHg 48%
    13:00 +28°C° 0 mm 2 mps 735 mmHg 46%
    14:00 +29°C° 0 mm 3 mps 735 mmHg 45%
    15:00 +29°C° 0 mm 3 mps 735 mmHg 47%
    16:00 +28°C° 0 mm 3 mps 735 mmHg 49%
    17:00 +28°C° 0 mm 3 mps 735 mmHg 51%
    18:00 +26°C° 0.1 mm 3 mps 735 mmHg 61%
    19:00 +24°C° 0.1 mm 3 mps 735 mmHg 71%
    20:00 +21°C° 0.1 mm 3 mps 735 mmHg 81%
    21:00 +20°C° 0 mm 3 mps 735 mmHg 84%
    22:00 +20°C° 0 mm 3 mps 735 mmHg 87%
    23:00 +19°C° 0 mm 3 mps 735 mmHg 90%

    29 July, Monday

    Time Temperature Precipitation Wind Pressure Humidity
    00:00 +19°C° 0 mm 3 mps 735 mmHg 91%
    01:00 +18°C° 0 mm 3 mps 735 mmHg 93%
    02:00 +18°C° 0 mm 3 mps 735 mmHg 95%
    03:00 +18°C° 0 mm 3 mps 735 mmHg 96%
    04:00 +18°C° 0 mm 4 mps 735 mmHg 96%
    05:00 +18°C° 0 mm 4 mps 735 mmHg 97%
    06:00 +17°C° 0 mm 5 mps 735 mmHg 93%
    07:00 +19°C° 0 mm 5 mps 736 mmHg 90%
    08:00 +19°C° 0 mm 5 mps 736 mmHg 86%
    09:00 +20°C° 0 mm 5 mps 736 mmHg 80%
    10:00 +21°C° 0 mm 5 mps 737 mmHg 74%
    11:00 +21°C° 0 mm 6 mps 737 mmHg 68%
    12:00 +22°C° 0 mm 6 mps 737 mmHg 63%
    13:00 +22°C° 0 mm 6 mps 737 mmHg 58%
    14:00 +23°C° 0 mm 6 mps 738 mmHg 53%
    15:00 +23°C° 0 mm 6 mps 738 mmHg 53%
    16:00 +22°C° 0 mm 5 mps 738 mmHg 53%
    17:00 +22°C° 0 mm 5 mps 738 mmHg 53%
    18:00 +20°C° 0 mm 5 mps 738 mmHg 58%
    19:00 +18°C° 0 mm 4 mps 739 mmHg 64%
    20:00 +15°C° 0 mm 4 mps 739 mmHg 69%
    21:00 +14°C° 0 mm 4 mps 740 mmHg 72%
    22:00 +13°C° 0 mm 3 mps 740 mmHg 76%
    23:00 +12°C° 0 mm 3 mps 740 mmHg 79%
    Show more